User: anonymous   Login
Location: Brno
(49.2000°N, 16.6330°E)
Time: 19:51:00
(UTC+02:00)
Language:

Iridium 2 - Orbit

View from above orbital plane
View from above orbital plane
View from above satellite
View from above satellite

Ground track
Ground track

The orbit data is extracted from the following two-line orbital elements,

1 25527U 98066A   16177.27942242  .00001216  00000-0  62550-4 0  9996
2 25527  85.5317 242.6942 0008153 335.0688  25.0157 15.15330331963802
Epoch (UTC): 25 June 2016 06:42:22
Eccentricity: 0.0008153
inclination: 85.5317°
perigee height: 514 km
apogee height: 525 km
right ascension of ascending node: 242.6942°
argument of perigee: 335.0688°
revolutions per day: 15.15330331
mean anomaly at epoch: 25.0157°
orbit number at epoch: 96380

The dashed part of the orbit path shows where the satellite is in the earth's shadow,  

DLR